Location: Clair
(33.8067°N, 117.9845°W)
Time: 08:21:13
(UTC+00:00)

Cosmos 1400 Rocket - Pass Details

Date: 14 February 2026
Orbit: 474 x 509 km, 81.1° (Epoch: 12 March)

Event Time Altitude Azimuth Distance (km) Brightness Sun altitude
Rises 13:37:04 0° 202° (SSW) 2,587 6.1 -13.1°
Reaches altitude 10° 13:39:15 10° 210° (SSW) 1,712 5.1 -12.6°
Maximum altitude 13:42:48 40° 281° (W) 763 3.0 -11.9°
Drops below altitude 10° 13:46:25 10° 352° (N) 1,734 5.2 -11.2°
Sets 13:48:39 0° 360° (N) 2,625 6.2 -10.7°
